RH
39 39 38 37 37 37 36 35 34 34 33 33 32 32 32 33 32 32 32 32 32 32 32 32 32 32 33 33 33 33 34 35 35 36 37 37 38 38 38 38 39 39 38 38 38 37 36 36 35 35 34 34 35 34 35 35 36 36 37 38 39 41 42 44 46 48 50 52 54 57 60 63 66 70 73 77 78 78 77 75 73 72 73 74 76
40 39 39 38 38 38 37 37 37 37 37 37 38 38 38 38 38 37 38 37 37 37 36 36 36 35 35 34 33 33 33 32 32 31 30 30 29 29 30 30 30 31 31 31 31 31 31 31 32 32 32 32 32 32 32 32 32 32 32 32 32 32 33 34 35 36 38 40 43 46 49 51 53 56 59 63 68 72 75 76 75 74 73 73 74
45 44 43 42 42 41 41 41 41 41 41 41 41 41 41 40 40 40 40 40 39 39 39 39 39 39 39 39 39 38 38 38 37 36 35 34 34 33 33 32 31 31 30 29 29 29 28 28 27 27 27 27 26 26 26 26 27 27 27 27 28 28 28 28 27 27 27 28 30 32 35 39 42 46 48 51 54 57 62 66 69 71 72 71 71
49 48 47 47 46 46 46 46 46 46 46 46 46 46 46 45 45 44 43 43 43 42 42 42 41 41 40 40 40 39 39 39 38 38 38 37 37 38 37 37 36 35 35 35 34 34 33 32 32 31 30 29 29 28 27 27 27 26 26 25 25 25 25 25 24 24 23 23 22 22 23 25 28 32 36 40 43 45 48 52 55 59 62 65 66
42 42 41 41 41 40 40 40 40 41 41 41 41 42 42 43 43 43 43 43 44 44 44 45 44 44 44 44 43 42 41 41 40 39 38 38 38 38 37 37 37 36 36 36 35 35 35 35 34 34 34 33 33 32 32 32 32 31 31 30 29 28 27 27 26 26 25 24 22 22 21 21 21 21 23 26 29 32 36 39 43 46 49 52 55
30 30 30 30 30 30 30 31 30 31 31 31 31 31 31 31 31 31 32 32 33 34 35 36 37 38 40 41 42 43 44 44 44 43 42 42 41 40 40 39 38 38 37 37 36 35 35 35 35 34 34 34 34 33 33 33 33 33 33 32 32 31 31 30 30 30 29 28 26 25 24 23 23 22 21 21 20 21 23 25 28 32 35 38 41
28 28 29 30 31 31 32 32 32 33 33 33 32 32 31 29 28 27 26 25 24 24 24 24 25 25 26 28 29 31 33 36 37 39 40 41 42 43 43 43 42 42 41 41 41 40 40 39 39 38 38 37 36 35 35 34 34 34 34 34 34 33 33 33 33 32 31 31 30 29 27 26 25 25 24 23 22 21 21 20 20 20 22 24 27
36 35 36 36 36 37 37 37 37 37 37 37 37 37 36 35 34 33 31 30 27 25 23 22 21 21 20 20 20 21 21 23 24 25 27 29 31 33 34 36 37 38 39 39 39 40 40 41 41 42 42 41 41 41 40 40 39 38 38 37 37 36 35 35 35 34 33 33 32 32 31 29 28 27 26 25 24 23 22 22 22 21 20 19 19
40 40 39 40 39 38 38 37 37 36 36 36 36 35 36 35 35 34 34 33 31 29 26 24 22 21 20 19 18 18 17 17 18 18 18 19 20 21 22 23 24 26 27 28 29 31 31 32 33 34 35 36 37 38 39 39 39 39 40 40 41 40 39 39 38 37 36 35 34 33 33 32 31 30 28 27 25 24 23 23 23 23 22 21 20
40 41 41 40 40 38 37 36 35 35 35 34 34 34 33 32 30 29 29 28 27 26 25 23 22 21 19 18 17 17 16 16 16 15 15 16 16 16 16 16 16 17 18 18 19 20 20 21 22 23 25 26 27 29 30 31 31 32 33 34 35 36 36 36 37 37 38 37 37 35 35 34 34 33 32 30 28 26 25 25 24 24 23 23 22
43 44 44 43 42 41 40 39 39 39 40 39 38 37 35 33 32 30 29 27 26 25 24 22 21 20 19 19 19 18 18 17 17 16 16 15 15 15 16 16 16 15 15 15 15 15 15 15 15 16 16 17 18 19 20 21 22 23 24 24 25 26 26 27 28 29 30 32 33 33 34 34 34 34 33 32 31 29 28 28 27 26 25 25 24
49 49 49 48 48 48 47 47 48 48 48 47 47 47 46 45 43 43 41 38 35 31 28 25 23 22 22 21 21 20 20 20 19 19 18 18 18 18 17 17 17 17 17 17 17 16 16 15 15 15 15 14 14 14 14 14 14 15 15 15 16 16 17 17 18 18 19 21 23 24 26 27 29 31 31 31 31 30 29 29 29 28 28 27 25
57 56 57 57 56 56 56 56 56 56 57 57 58 59 59 60 59 58 57 53 47 40 33 29 27 26 25 24 23 22 22 21 21 20 20 20 20 20 20 20 19 19 19 19 19 19 18 18 17 17 16 16 15 14 14 13 13 12 12 11 11 11 11 11 11 11 12 12 13 14 16 18 20 23 25 27 29 29 30 30 29 29 29 30 29
62 63 64 64 64 63 64 65 65 65 66 67 67 68 69 71 69 67 66 61 54 45 37 32 30 29 28 27 25 24 23 22 22 21 21 20 20 20 20 20 20 21 20 20 21 21 21 20 19 19 18 17 16 16 15 14 13 12 11 11 10 10 10 9 9 9 9 9 9 9 10 11 12 13 15 17 20 23 25 27 28 29 30 31 31
64 67 68 68 68 69 71 72 72 72 74 75 75 76 77 78 77 74 72 68 59 49 40 35 34 34 33 31 29 27 26 25 24 24 24 23 23 23 22 22 22 22 22 21 21 21 21 20 20 19 19 18 17 16 15 14 13 12 12 11 11 11 10 10 10 10 9 9 9 8 8 8 8 8 9 9 11 12 14 16 19 22 24 27 29
65 69 71 71 71 73 76 77 77 78 78 79 80 80 81 83 83 82 80 77 69 57 46 41 39 39 38 36 34 32 30 28 27 26 26 26 26 26 25 25 25 24 24 23 22 22 21 21 20 19 18 17 16 15 14 13 13 12 12 12 12 12 11 11 10 10 10 9 8 8 7 7 7 7 7 7 8 8 8 9 10 11 13 16 19
69 74 76 76 76 77 80 81 81 82 82 82 82 83 83 84 86 88 86 82 75 63 50 44 43 42 41 40 38 35 33 31 29 28 28 28 28 29 28 28 28 27 26 26 24 24 23 22 21 20 19 18 16 16 14 14 13 13 13 12 11 11 10 9 9 8 8 7 7 7 6 7 6 6 7 7 7 7 7 7 7 8 8 9 10
75 80 82 84 83 82 83 84 84 85 84 84 84 85 85 85 88 90 87 83 74 62 50 45 44 44 43 42 40 38 36 34 33 31 30 30 30 30 30 30 29 28 28 27 25 24 23 22 22 20 19 18 17 16 15 14 13 12 12 10 9 9 8 7 7 6 6 6 6 6 6 6 6 6 6 6 6 6 6 7 7 7 7 7 7
80 85 88 90 90 87 86 87 88 88 86 86 87 88 88 87 90 92 89 84 72 58 49 45 45 45 45 44 43 41 39 37 35 34 32 32 31 31 31 31 31 30 28 27 25 23 22 21 20 19 18 17 16 15 14 13 12 10 9 8 7 7 6 6 6 5 5 5 5 5 5 5 5 5 6 6 6 6 6 6 6 6 6 6 7
84 88 93 95 94 91 90 91 90 88 87 89 90 90 90 90 92 95 92 85 70 54 48 46 46 47 47 46 45 43 41 38 36 34 32 32 31 31 31 31 30 29 28 26 24 22 21 20 19 18 17 16 15 14 12 11 10 9 8 7 6 6 6 5 5 5 5 5 5 5 5 5 5 5 5 5 5 5 5 5 5 5 6 5 6
89 92 96 98 98 95 94 94 90 88 89 92 92 92 92 92 95 97 93 83 65 51 47 47 47 48 47 46 45 43 41 39 36 34 31 30 30 29 30 29 29 28 26 24 22 21 20 18 18 17 16 15 14 13 12 10 9 8 7 6 6 5 5 5 5 5 5 5 5 5 5 5 5 5 5 5 5 5 5 5 5 5 5 5 5
92 95 98 100 99 97 97 95 90 90 92 94 94 94 93 95 97 98 92 78 59 48 47 48 49 48 47 46 44 42 41 38 35 33 30 29 28 28 28 27 27 26 25 23 22 21 19 18 17 16 16 15 14 13 12 10 9 8 7 6 6 6 5 5 5 5 5 5 5 5 5 5 5 5 5 5 5 5 5 5 5 5 5 5 5
93 96 98 98 98 98 98 95 91 92 93 94 96 96 96 98 99 98 89 72 54 47 49 50 49 47 45 44 42 40 39 37 35 33 30 29 27 26 27 26 26 25 24 23 22 21 20 18 17 16 16 15 14 13 11 9 8 7 7 6 6 6 6 5 5 5 5 5 5 5 5 5 5 5 5 5 5 5 5 5 5 5 5 5 5
94 96 97 96 98 99 97 93 92 93 94 96 98 99 100 101 101 97 84 64 51 49 51 51 48 46 43 41 39 37 36 35 34 32 30 29 27 26 25 26 26 25 24 23 22 21 20 18 17 16 15 14 13 11 9 7 7 7 7 7 6 6 6 6 6 5 5 5 5 5 5 5 5 5 5 5 5 5 5 5 5 5 5 5 5
95 96 96 97 98 97 94 92 93 95 97 99 100 101 102 103 102 93 74 58 51 52 52 50 47 45 43 40 38 35 34 33 32 32 31 29 27 26 25 25 26 26 25 24 22 21 19 18 17 16 15 14 12 10 8 7 7 7 7 7 7 7 6 6 6 6 6 6 5 5 5 5 5 4 4 4 4 4 4 4 4 4 4 4 4
97 98 98 99 99 95 93 93 95 96 97 100 101 102 104 104 98 82 64 54 53 54 53 50 48 46 44 42 38 35 33 31 30 30 30 30 28 27 26 26 27 27 26 25 23 22 20 18 18 17 16 15 12 9 8 8 8 8 8 8 7 7 6 6 6 6 6 6 5 5 5 4 4 4 4 4 4 4 4 4 4 4 4 4 4
99 101 101 100 96 94 93 93 94 95 97 99 100 102 104 101 88 68 56 54 55 54 52 50 49 47 46 43 39 35 32 30 29 29 29 29 28 27 26 26 27 28 27 26 25 23 21 19 19 18 17 15 12 10 9 9 9 9 8 8 7 7 7 6 7 6 6 6 5 5 4 4 4 4 4 4 4 4 4 4 4 4 4 4 4
100 102 100 98 95 93 93 93 95 96 97 99 101 105 104 92 73 58 54 56 56 54 52 50 50 49 47 43 38 33 31 28 28 27 27 28 27 26 26 26 27 28 28 27 26 23 21 20 20 19 18 15 11 10 9 9 9 9 9 8 8 7 7 7 7 6 5 5 5 5 5 4 4 4 4 4 4 4 4 4 4 4 4 4 4
101 100 98 98 95 93 93 94 97 99 100 101 103 106 98 79 62 56 56 57 56 54 53 51 51 50 47 42 36 31 29 27 27 26 27 27 27 26 25 26 28 29 29 28 26 23 21 21 21 20 17 14 10 10 10 10 10 9 9 9 9 8 7 7 6 6 5 5 5 5 5 5 5 4 4 4 4 4 4 4 4 4 4 4 4
99 98 98 97 93 93 95 96 98 101 102 104 107 103 86 66 57 57 58 58 57 55 54 53 53 51 46 40 34 29 27 26 26 26 26 26 26 25 26 28 29 29 29 27 24 22 21 21 21 19 15 12 10 10 10 10 9 9 9 9 9 8 7 6 6 6 6 6 6 6 5 5 5 5 4 4 4 5 4 5 5 4 4 4 4
99 99 98 94 91 93 95 97 99 101 102 106 104 91 71 59 58 59 60 59 58 56 56 55 54 51 45 37 30 27 26 26 26 26 26 26 25 26 28 29 30 29 28 26 23 21 21 21 21 18 13 11 10 10 10 10 9 9 9 10 10 9 7 6 6 6 6 6 6 6 5 5 5 5 5 5 5 5 5 5 5 5 5 5 5
99 98 94 90 90 92 94 97 100 102 104 102 90 73 61 59 60 61 61 60 58 58 57 57 55 50 41 32 28 26 25 26 26 26 26 26 26 27 29 30 30 29 27 24 22 21 22 22 20 16 12 11 11 11 10 10 9 9 10 10 10 9 7 7 6 7 7 7 6 5 5 5 5 5 6 5 5 5 5 5 5 5 5 5 5
94 92 90 88 90 93 96 98 100 103 101 89 72 62 60 61 62 63 62 61 59 59 58 57 54 45 35 29 26 26 26 26 27 26 26 26 27 28 30 31 31 29 26 23 21 22 22 22 18 14 11 11 11 10 10 10 10 10 10 10 10 9 8 8 8 8 8 7 6 5 5 5 5 6 6 7 6 6 5 5 5 5 5 5 5
87 89 89 90 93 96 98 100 103 100 87 71 61 60 62 63 64 63 62 60 59 59 58 56 49 39 30 26 26 26 27 27 27 26 25 26 28 30 31 32 31 29 26 23 22 23 23 20 16 12 11 11 11 10 10 10 10 10 10 10 10 10 9 9 9 8 8 7 6 6 5 5 5 6 7 7 7 6 6 6 5 5 5 6 6
88 91 92 95 98 99 100 103 101 88 70 60 60 62 63 64 64 62 61 60 59 60 58 53 43 33 27 26 26 26 27 27 26 26 26 27 29 31 33 33 31 28 25 23 23 24 22 18 13 12 12 12 11 10 10 11 11 11 10 10 10 10 10 10 9 9 8 7 6 6 6 6 6 6 7 7 7 7 7 7 6 6 6 6 6
94 96 98 100 100 101 103 101 88 70 60 60 62 63 64 64 63 62 61 61 61 61 57 48 36 28 26 26 27 27 27 27 26 26 27 29 31 33 34 33 30 27 25 24 24 24 20 15 12 12 13 12 11 10 11 11 11 11 10 11 11 11 11 10 9 8 7 6 6 7 7 7 8 8 8 7 7 7 7 7 7 7 7 6 6
99 100 102 102 102 104 101 88 71 61 60 62 63 64 65 64 63 63 62 63 63 60 52 41 30 26 26 27 28 28 27 27 27 27 29 30 32 33 33 31 29 26 24 24 24 22 17 13 12 12 13 12 11 10 11 12 12 11 11 11 12 13 12 11 9 8 7 7 7 7 7 9 9 9 9 8 7 8 8 7 7 7 8 8 7
102 102 102 103 104 101 88 71 62 60 61 62 63 63 64 63 64 64 63 64 62 55 45 33 27 26 27 28 28 28 27 27 27 28 30 31 32 32 31 29 28 26 24 24 23 19 14 12 12 13 13 12 12 11 11 12 12 11 11 12 13 14 12 11 9 8 7 7 7 7 8 10 11 11 10 9 8 8 8 8 7 8 8 8 8
101 103 106 106 98 84 69 61 61 62 61 62 62 62 63 63 64 64 64 63 58 48 37 28 25 26 27 28 29 28 28 28 28 29 31 32 32 31 30 28 27 25 25 24 21 16 13 12 13 13 12 12 12 12 12 12 12 11 12 13 14 14 13 11 9 8 7 7 7 8 9 11 13 12 11 10 9 9 9 9 8 8 9 8 7
103 104 102 94 79 66 61 61 62 61 61 61 61 62 63 64 65 65 64 60 51 40 31 26 26 27 28 29 29 28 28 29 30 31 32 32 33 31 29 28 27 26 26 23 18 15 13 14 13 13 12 12 12 13 12 11 12 12 12 13 14 14 12 10 9 8 7 7 7 8 9 11 13 14 12 11 10 10 10 9 9 9 9 9 8
107 99 85 72 63 60 61 62 62 62 62 61 62 64 65 65 67 65 60 53 43 33 27 26 27 28 29 29 29 28 29 30 31 32 32 32 32 31 29 28 28 28 27 22 16 14 15 15 14 13 12 12 12 13 12 12 12 13 13 13 13 13 11 10 9 8 7 7 8 9 10 11 13 15 14 13 12 11 10 10 10 10 9 9 8
94 78 65 60 60 61 62 62 63 63 63 63 64 66 66 67 66 62 54 45 36 29 26 26 28 29 30 30 29 29 30 31 32 33 33 32 32 31 29 28 29 29 26 19 15 15 17 17 15 14 13 13 12 12 12 12 13 13 13 13 12 11 10 9 9 8 7 8 9 10 12 12 13 14 14 14 13 12 11 11 11 11 11 10 8
70 61 59 60 62 63 63 64 65 65 65 66 66 67 67 66 63 56 46 38 30 26 26 27 29 30 30 30 30 30 31 32 33 34 34 34 32 30 29 28 29 28 23 17 15 17 18 18 17 15 14 13 13 12 12 13 13 14 14 13 12 10 9 9 9 9 8 9 11 12 13 13 13 14 14 15 14 12 12 11 11 12 12 11 9
58 58 61 62 64 65 66 66 67 68 67 67 67 68 67 63 57 48 39 32 27 26 27 29 30 31 30 30 31 31 32 33 34 35 36 35 33 30 28 28 28 25 20 16 17 18 19 19 18 17 16 15 14 12 12 12 13 14 13 13 11 10 9 9 9 9 9 11 12 13 14 15 14 14 14 14 14 13 12 12 12 12 13 12 10
58 60 63 65 67 67 68 69 70 70 68 68 68 67 64 57 49 40 33 29 27 27 28 30 31 31 31 31 32 32 33 34 35 37 38 36 33 31 29 27 25 21 18 17 18 19 19 19 19 18 18 17 15 14 12 12 12 13 13 12 11 9 8 9 9 9 11 13 15 16 17 17 16 15 15 14 13 12 12 12 12 13 14 13 11
59 62 66 68 69 69 71 72 71 70 69 67 66 64 58 49 41 34 30 28 27 28 29 30 31 32 32 33 33 33 33 34 35 37 37 35 33 32 30 26 22 18 17 18 19 19 18 19 20 19 19 19 17 15 12 11 11 11 12 12 11 9 9 9 9 10 13 15 17 18 19 19 19 18 18 16 14 12 11 11 11 13 13 13 12
62 65 68 70 71 72 73 72 71 70 68 65 63 58 50 41 34 30 28 27 28 29 30 31 32 32 33 34 33 33 34 35 35 36 35 34 33 32 29 23 18 17 18 19 19 18 18 19 20 20 20 20 19 16 13 11 10 9 11 12 10 9 9 9 9 12 15 17 18 19 20 20 21 22 21 19 17 15 12 11 10 11 12 12 11
63 67 69 71 71 72 72 71 70 68 64 61 57 51 43 35 30 28 28 28 29 29 30 31 32 33 33 34 33 34 35 35 35 35 34 33 32 30 26 20 16 17 19 19 19 17 17 18 20 20 20 21 20 16 13 11 9 8 10 11 10 9 9 9 11 15 18 18 18 18 18 19 20 21 20 19 18 17 15 13 12 12 12 11 11
65 68 70 70 70 71 70 68 66 63 59 54 50 44 37 31 27 27 28 29 29 29 30 31 32 33 34 34 34 35 36 36 36 36 34 33 30 26 22 18 17 18 18 17 17 16 16 17 18 19 19 19 18 16 13 10 8 8 9 11 11 9 9 10 13 18 20 19 18 19 21 21 22 22 20 18 17 16 15 14 13 13 13 12 11
66 68 68 68 68 67 66 63 60 57 52 47 42 37 32 28 26 27 28 28 29 29 30 31 32 33 34 34 35 35 36 36 37 37 37 35 28 22 18 17 18 19 18 16 15 15 16 16 17 18 18 18 17 16 12 9 8 7 9 10 10 9 10 12 16 19 21 21 22 24 25 25 25 25 22 20 19 18 16 15 15 14 13 12 10
65 65 64 64 63 62 61 58 55 49 44 39 35 31 28 27 27 27 27 28 29 29 30 31 32 33 34 35 36 36 36 36 37 38 38 35 28 21 18 17 18 19 18 16 14 14 15 16 16 16 17 17 17 15 12 10 8 8 8 10 10 10 11 14 17 20 21 21 22 23 22 21 21 21 20 18 17 17 16 17 17 16 15 13 11
Wind_Speed
65 67 68 70 72 73 75 77 79 80 82 83 85 87 88 90 91 93 95 96 98 100 101 103 104 106 108 110 112 114 115 117 119 121 122 124 125 126 127 128 129 130 132 133 134 136 137 138 139 140 142 143 143 145 146 147 148 149 150 151 151 152 153 154 154 154 154 154 154 155 155 155 155 155 155 154 154 154 153 153 152 152 151 151 150
66 68 69 70 72 73 74 76 77 79 80 82 83 85 87 89 90 91 93 95 96 98 99 101 102 104 105 107 108 109 111 113 114 116 118 119 120 121 122 123 124 125 126 127 128 130 131 132 133 134 135 136 137 139 140 141 142 144 145 147 148 149 151 152 154 156 156 157 158 158 159 159 159 159 159 159 159 159 158 157 157 156 156 155 155
67 69 70 71 72 74 75 76 78 79 81 82 84 86 88 89 91 92 94 96 97 98 100 101 103 104 105 106 108 109 110 112 113 115 116 117 118 118 120 121 122 122 123 124 125 126 127 128 129 130 131 132 132 133 134 135 136 137 138 140 141 142 143 145 148 150 152 154 156 158 160 162 162 162 162 162 162 162 162 162 161 161 161 160 160
67 69 70 71 72 74 75 76 78 80 81 83 85 87 89 91 93 95 96 98 99 100 102 103 104 106 107 108 110 111 112 113 115 116 117 117 118 119 120 121 122 123 124 124 125 126 127 127 128 129 129 130 131 131 132 132 133 134 135 135 136 137 138 139 140 142 144 146 148 150 153 156 159 161 163 164 165 165 165 165 165 165 165 165 164
64 65 66 67 68 69 70 71 73 75 77 79 82 84 86 88 91 93 95 97 98 100 102 104 105 107 108 110 111 113 114 115 117 118 119 119 120 121 122 123 124 125 125 126 126 127 127 128 129 129 130 131 131 132 132 132 133 133 134 135 135 136 136 137 137 139 140 142 143 144 145 147 149 153 156 159 162 165 166 167 167 167 167 167 167
58 59 59 60 61 62 63 64 66 68 70 72 74 77 80 82 85 87 89 92 94 96 98 100 102 105 106 108 110 112 114 116 117 119 120 121 122 123 124 125 126 127 127 128 128 129 129 130 131 131 132 132 133 133 134 134 134 135 135 136 136 137 137 138 138 139 140 141 142 143 143 143 144 145 147 150 153 156 159 162 165 167 168 169 169
52 53 54 54 55 56 57 59 60 62 64 66 68 71 74 76 79 81 84 86 88 91 93 95 97 100 102 104 106 108 110 112 114 116 118 120 121 122 124 125 126 127 128 129 129 130 131 131 132 133 134 134 135 135 136 136 136 137 137 138 139 139 139 140 140 141 142 142 143 144 144 144 144 144 145 146 147 148 150 153 156 159 162 164 166
49 50 50 51 52 53 54 55 57 58 60 61 64 66 68 70 73 75 78 81 83 86 88 91 92 94 96 99 101 103 105 106 109 111 113 115 117 119 120 122 124 125 127 128 129 130 131 132 133 134 135 135 136 136 137 137 138 138 139 139 140 141 141 142 143 144 144 145 145 145 146 147 147 147 147 147 147 147 147 148 150 152 154 156 158
47 48 49 50 51 51 52 54 55 56 58 59 61 63 64 66 68 70 72 75 78 81 83 86 88 89 91 93 95 97 99 100 102 104 107 109 111 113 115 117 119 120 122 124 126 127 129 130 131 132 133 134 135 136 136 137 138 139 139 140 141 142 142 143 144 145 145 146 147 147 147 148 149 149 149 150 149 148 148 148 149 150 151 152 153
48 49 51 52 52 53 53 55 56 57 58 59 61 62 63 65 66 68 69 71 73 75 78 80 82 84 86 87 89 90 92 94 95 97 99 102 103 106 108 110 112 114 116 119 121 123 124 126 127 128 129 131 132 133 134 135 136 138 138 139 140 141 142 143 144 145 146 146 147 148 148 149 150 151 151 152 152 151 150 149 150 150 151 151 152
50 51 53 54 55 56 57 58 59 60 61 62 63 64 65 66 67 68 70 71 72 73 75 76 77 79 81 82 84 85 87 88 90 92 93 95 97 99 101 102 104 106 109 111 114 116 118 119 121 122 124 126 127 128 130 131 133 134 136 137 138 139 141 142 143 144 145 146 147 148 148 149 150 151 152 152 153 153 152 151 152 152 152 152 152
53 54 55 57 58 60 61 62 63 64 65 67 67 68 69 70 71 72 73 73 74 75 75 76 76 77 78 79 80 81 83 84 86 88 89 91 93 94 96 98 99 101 102 104 106 108 110 112 114 115 117 119 121 122 124 126 128 129 131 132 134 135 137 138 139 140 141 143 144 145 147 148 149 150 151 152 152 153 152 152 153 153 153 153 153
55 56 58 59 61 63 64 65 66 68 69 70 71 72 73 74 75 75 76 76 76 76 76 76 76 76 77 77 78 79 80 81 83 84 86 88 89 91 93 95 96 98 99 101 103 104 106 108 109 111 112 114 116 117 119 120 122 124 125 127 129 130 132 133 135 136 137 138 140 141 142 144 146 147 149 150 151 152 152 153 153 153 154 154 154
57 58 60 61 63 64 66 67 69 70 71 72 73 74 75 76 77 77 78 78 77 77 77 76 76 76 76 77 77 78 79 80 81 82 83 85 86 88 89 91 93 95 97 98 100 102 104 105 107 109 110 112 113 115 116 118 119 120 121 122 123 124 126 127 128 129 131 132 134 135 137 138 140 142 144 146 148 149 151 152 153 153 153 154 154
58 60 62 63 65 66 68 69 71 72 73 74 75 76 77 78 79 79 80 80 79 78 77 77 77 77 77 77 77 77 78 79 80 81 82 83 84 85 87 88 90 91 93 95 97 98 100 102 104 106 108 110 111 113 114 115 116 117 118 118 119 120 121 122 123 124 125 126 127 128 130 131 133 135 137 139 141 143 146 148 150 151 152 153 154
60 61 63 65 67 68 70 71 73 74 75 76 77 78 79 80 81 82 83 83 81 79 78 77 77 77 78 78 78 78 78 79 79 80 81 82 83 84 85 86 88 89 91 93 95 96 98 100 102 104 106 108 109 110 111 112 112 113 114 114 115 116 117 118 119 120 121 123 123 124 125 125 126 128 130 132 134 136 138 141 143 145 147 149 151
62 63 65 67 68 69 71 73 74 76 77 78 79 80 81 82 83 84 85 85 83 81 79 78 78 78 78 79 79 79 79 80 80 81 81 82 83 84 85 86 87 89 90 92 94 95 97 99 101 102 104 106 107 108 108 108 109 109 110 110 111 112 113 114 115 116 117 118 119 120 121 122 122 123 124 125 126 128 130 133 135 138 140 142 144
65 66 67 69 70 71 73 75 76 78 79 80 81 82 83 84 85 86 86 87 85 82 80 78 78 78 79 79 80 80 81 81 81 82 82 83 84 84 85 86 87 89 90 91 93 95 96 98 99 101 102 103 104 105 105 105 105 106 107 107 108 108 109 109 110 110 111 112 113 115 116 117 118 119 120 121 122 123 124 126 128 131 133 135 137
67 68 70 71 72 74 75 77 78 80 81 82 83 84 84 85 86 87 88 88 86 82 80 79 79 79 79 80 81 81 82 82 82 83 83 84 84 85 86 86 87 89 90 91 92 93 95 96 97 99 100 100 101 101 101 101 102 102 103 103 103 103 103 104 104 105 106 107 108 109 110 112 113 115 116 118 119 120 122 123 124 126 128 129 131
69 70 72 73 74 76 77 79 80 82 83 84 85 85 86 87 87 89 90 90 87 83 81 80 79 79 80 81 81 82 82 83 83 83 83 84 84 85 86 87 87 88 89 90 91 92 93 94 95 96 96 97 97 97 97 97 98 98 98 98 98 98 98 98 98 99 100 101 102 104 105 107 108 110 112 113 115 117 119 121 122 124 125 127 128
71 72 73 75 76 78 79 81 82 84 84 85 86 87 87 88 89 91 92 91 88 84 82 81 81 81 81 82 83 83 83 83 83 83 83 83 84 84 85 86 87 88 89 89 90 90 91 92 93 93 94 93 93 94 94 94 94 94 94 94 93 93 93 93 93 94 94 95 97 98 100 102 103 104 106 108 110 112 114 116 118 120 122 124 126
72 73 75 76 78 79 81 83 84 85 86 87 88 89 89 90 91 93 93 92 88 85 84 83 83 83 83 84 84 84 84 84 84 84 84 83 84 84 85 85 86 87 88 88 89 89 90 91 91 91 91 91 91 92 91 91 91 91 91 91 91 91 91 91 91 91 91 92 93 94 96 97 99 100 102 104 105 107 109 110 112 114 116 119 121
73 75 77 78 79 81 82 84 85 86 87 88 89 90 91 92 93 95 94 92 89 86 85 85 85 85 85 85 85 85 85 85 85 85 84 84 84 84 85 85 86 87 87 88 88 89 89 90 90 90 90 90 90 89 89 89 88 89 89 89 89 90 90 90 90 90 90 91 91 92 93 94 95 96 98 100 102 104 105 107 108 110 112 114 116
75 76 78 79 81 82 84 85 86 88 89 90 91 92 93 94 95 96 94 91 89 87 86 86 86 86 86 86 86 86 86 86 86 85 85 85 85 85 85 85 86 86 87 87 88 88 88 88 88 88 88 88 88 87 87 86 86 87 87 88 88 89 89 89 89 89 89 90 90 91 91 92 92 93 95 97 98 100 102 103 105 107 109 110 112
76 78 79 81 83 84 85 86 88 89 90 91 92 93 94 96 97 96 94 91 89 88 88 87 87 87 87 87 87 87 87 86 86 86 86 86 86 86 86 86 86 87 87 87 87 87 87 87 87 87 87 87 87 86 85 85 85 86 87 88 88 88 88 88 88 88 88 88 89 89 90 90 90 91 92 93 94 96 97 99 101 103 105 107 108
78 80 81 83 84 86 87 88 89 91 92 93 94 95 96 98 98 96 93 91 90 89 89 88 88 88 88 89 89 89 88 87 87 86 86 86 86 86 86 86 86 86 87 87 87 87 87 87 87 86 86 86 86 85 84 84 85 86 86 87 88 87 87 87 87 87 87 88 88 88 88 88 88 89 90 90 91 92 93 94 96 98 100 101 103
80 82 83 85 86 87 88 89 91 92 93 95 95 97 98 98 97 94 92 91 90 90 90 89 89 90 90 91 91 90 89 88 87 87 86 86 86 86 86 86 86 86 86 86 86 86 86 86 86 86 85 85 85 84 84 83 84 85 85 86 86 87 86 86 86 86 86 86 86 86 86 85 85 86 86 87 88 89 90 91 93 94 95 97 99
82 84 85 86 87 88 90 91 93 94 95 96 97 98 99 98 96 93 91 91 91 91 91 90 91 91 92 92 91 90 89 88 87 87 86 86 86 86 85 85 85 85 85 86 86 86 86 85 85 85 85 84 84 83 83 83 83 83 83 84 85 86 85 85 84 84 83 83 83 83 83 83 83 83 83 84 85 86 87 88 90 91 92 93 95
84 86 87 88 88 90 92 93 94 96 97 98 99 99 99 97 94 92 91 91 91 91 91 91 92 93 93 93 92 90 89 88 87 86 86 86 85 85 84 84 84 85 85 85 85 85 85 85 85 84 84 84 83 83 83 82 82 81 81 82 84 85 84 83 82 81 81 80 80 80 80 80 80 80 81 82 82 83 84 86 87 87 88 90 92
87 88 88 89 90 92 94 95 96 97 98 99 100 99 98 95 93 92 92 92 92 92 92 92 93 94 94 93 92 90 88 87 86 86 85 85 84 84 83 83 83 84 84 85 85 84 84 84 84 84 83 83 82 82 82 81 80 79 79 80 82 84 83 81 80 79 78 78 77 77 77 77 77 78 78 79 80 80 81 82 84 84 85 86 88
89 90 91 92 93 94 96 97 98 99 100 101 100 99 96 94 93 92 93 93 93 93 93 93 94 95 94 93 91 89 87 86 85 85 84 84 83 82 82 82 83 83 84 84 83 83 82 82 83 82 82 81 81 81 80 80 78 77 77 78 80 83 83 80 78 77 76 76 75 74 74 75 75 76 76 76 77 77 78 79 80 81 82 83 85
90 92 93 94 95 97 98 99 100 101 101 101 99 97 95 94 93 94 94 94 94 93 94 95 95 95 95 93 90 88 86 85 84 84 83 82 81 80 80 81 82 82 83 83 82 82 81 81 81 81 80 80 80 79 79 78 77 76 75 75 78 81 82 80 77 75 74 74 73 72 72 72 72 73 74 74 74 75 75 76 77 78 80 81 82
92 93 95 96 97 98 99 100 101 102 102 100 98 96 94 94 94 95 95 94 94 94 95 96 96 95 94 92 89 87 85 84 83 82 82 81 80 79 80 80 81 82 82 82 81 81 80 80 80 79 79 79 79 78 77 76 76 75 74 74 76 79 80 79 76 74 73 73 72 71 71 70 70 69 69 70 72 73 74 74 75 76 77 78 79
93 95 96 97 99 100 101 102 102 102 100 98 96 95 95 95 95 95 95 94 94 95 95 96 96 94 92 89 87 85 84 83 82 81 80 79 78 78 79 80 81 82 82 82 81 80 80 79 78 77 78 78 77 76 75 75 74 74 73 73 74 76 78 77 75 73 72 72 71 71 70 70 69 68 66 66 67 69 71 73 73 74 74 75 77
95 96 98 99 100 101 102 103 102 101 99 97 95 95 95 96 96 95 94 94 94 95 96 96 95 93 90 87 85 84 82 81 81 80 79 78 78 78 79 80 81 81 81 81 80 80 79 78 76 76 76 77 76 75 74 74 73 72 72 72 73 75 75 75 73 71 70 70 69 69 69 69 68 68 66 64 64 65 67 70 71 72 72 73 74
97 98 100 101 102 103 104 103 102 99 97 96 96 96 96 96 95 95 94 95 95 96 96 95 93 91 88 85 84 82 81 80 80 79 78 77 77 78 79 80 81 81 81 80 79 79 78 77 75 75 75 76 75 74 73 73 72 71 70 71 72 73 74 73 72 70 69 68 67 67 67 67 67 66 65 64 62 63 64 66 67 69 71 72 72
99 100 102 103 104 104 104 102 101 99 97 97 97 96 96 95 95 95 95 95 96 96 95 94 91 88 86 84 83 82 81 80 79 78 77 77 77 78 79 79 80 80 80 78 78 77 76 75 74 74 74 75 75 74 72 72 71 70 69 70 70 72 72 72 71 69 68 67 66 65 65 65 65 65 64 63 61 61 62 63 64 65 67 69 71
101 102 104 105 105 105 103 101 100 99 98 98 97 96 96 95 95 95 96 96 96 96 94 92 89 87 84 83 82 81 80 79 78 78 77 77 77 78 79 79 80 79 79 77 76 76 76 74 73 73 73 73 74 74 72 71 70 69 68 68 69 70 70 70 69 69 67 66 65 64 63 62 63 64 63 61 60 60 61 62 62 63 64 65 67
103 105 106 106 105 104 102 100 99 99 98 98 97 96 95 95 96 96 96 96 96 95 93 90 88 85 84 82 81 80 79 78 78 77 77 77 78 78 79 79 79 79 78 76 75 75 75 75 73 72 72 72 73 73 72 70 70 69 67 67 67 68 68 68 68 68 66 65 64 63 61 60 61 63 62 60 59 58 58 60 61 61 63 64 64
106 107 107 106 104 102 101 100 99 99 98 97 96 95 95 96 96 97 97 96 95 94 91 89 86 84 83 82 81 79 78 78 77 77 77 77 78 79 79 79 78 78 77 76 75 75 76 75 74 72 71 71 72 72 72 70 69 68 67 65 65 66 66 66 67 67 66 64 63 62 60 58 57 60 61 60 58 56 56 58 60 60 61 62 62
107 107 105 104 102 101 100 99 99 98 97 96 96 96 96 97 97 97 97 96 94 92 90 87 85 83 82 81 80 79 78 77 77 77 78 77 78 78 78 78 78 77 76 75 74 74 75 76 74 73 71 71 71 71 71 69 68 68 66 64 63 64 64 64 65 66 64 63 62 61 60 57 55 57 58 58 57 56 55 56 58 60 61 61 61
107 105 104 102 101 100 100 99 98 98 97 96 96 96 97 97 97 97 96 95 93 90 88 86 84 83 82 80 79 78 77 77 77 77 78 78 77 78 77 77 76 76 75 74 74 74 75 75 75 74 72 71 71 70 69 68 67 66 66 64 62 62 62 62 63 64 63 62 61 60 59 57 55 55 56 56 56 55 54 55 56 58 60 61 61
105 103 102 101 100 100 99 98 97 97 97 96 97 97 97 97 97 96 95 93 91 89 87 85 83 82 81 80 79 78 77 77 77 77 78 78 77 77 77 76 75 74 74 74 74 74 74 74 75 74 73 72 72 71 68 66 65 65 64 63 62 61 60 59 60 62 61 60 60 59 58 57 56 54 54 54 54 54 53 54 55 56 58 60 61
103 102 101 101 100 99 98 97 97 97 97 97 97 97 97 97 96 95 94 92 90 87 85 84 82 81 80 79 78 77 77 77 77 77 77 77 77 77 76 75 73 73 73 73 74 73 73 73 74 74 74 74 73 72 69 65 63 63 62 62 61 61 59 58 58 59 59 59 59 59 57 57 56 55 53 52 52 52 52 53 54 55 57 59 60
102 101 100 100 99 98 97 97 97 97 97 97 97 97 97 96 95 94 92 90 88 86 84 83 81 80 79 79 78 77 77 76 76 76 76 76 76 76 75 74 72 72 72 73 73 72 72 72 73 73 74 74 74 73 70 65 61 60 59 60 61 60 58 57 57 57 56 57 58 57 56 56 56 55 54 52 51 50 50 51 52 54 55 58 59
101 100 99 99 98 97 97 97 97 98 98 97 97 97 96 95 94 92 90 89 87 85 83 82 80 80 79 78 78 77 76 76 75 75 75 76 75 75 74 73 71 71 72 72 72 71 70 70 72 72 72 73 74 74 71 66 60 57 56 58 60 60 58 56 55 55 54 55 56 55 54 55 55 54 54 53 52 51 50 50 51 52 53 55 57
99 99 98 98 97 97 97 97 97 98 97 97 96 96 95 94 92 90 88 87 86 84 82 81 79 79 78 78 78 77 76 76 75 74 75 75 74 74 73 72 71 70 71 71 70 70 69 69 70 71 70 71 73 74 72 67 61 55 53 56 59 58 57 55 54 53 54 54 54 53 52 52 52 52 52 52 52 52 52 52 51 51 52 53 55
98 98 97 97 97 97 97 97 97 97 97 96 95 94 94 93 91 88 87 86 84 83 81 80 79 78 77 77 77 76 76 75 75 74 74 74 73 73 72 71 71 70 70 70 69 68 68 67 68 68 68 69 72 73 71 67 61 54 52 55 58 57 55 54 53 52 53 54 53 52 51 51 50 50 50 50 49 50 51 52 53 53 53 53 53
97 97 97 97 97 97 97 97 97 96 95 94 93 93 92 91 89 86 85 84 83 81 80 79 78 77 77 76 76 75 75 74 74 74 74 74 73 72 71 71 71 71 70 69 68 67 66 65 66 66 65 66 69 71 70 67 61 53 50 52 57 57 54 52 51 51 53 54 53 52 52 51 50 50 49 48 48 49 50 51 53 53 53 53 52
96 96 96 96 96 96 96 96 96 95 94 92 91 91 90 89 87 85 84 83 81 80 79 78 77 77 76 76 75 75 74 73 73 73 74 74 74 73 72 71 71 71 70 69 68 67 67 66 64 63 64 65 66 68 68 67 62 55 50 50 54 56 54 51 50 50 52 53 52 51 52 51 49 48 48 47 47 49 50 51 52 53 53 53 52
95 95 95 95 95 95 95 95 95 94 92 91 89 88 87 87 86 84 82 81 80 78 77 77 76 75 75 75 74 74 73 72 72 72 72 73 73 74 74 73 72 71 70 68 66 66 66 67 64 61 61 62 63 64 65 64 62 58 53 51 52 53 53 51 50 50 51 52 51 51 51 50 47 46 46 45 46 46 48 49 51 52 52 52 52
Wind_Direction
272 272 271 270 270 270 270 270 270 270 270 271 271 271 271 271 270 270 270 270 270 270 269 269 269 269 268 268 268 268 268 268 268 268 267 267 267 267 267 267 266 266 266 265 265 265 265 264 264 264 264 263 263 263 262 262 261 261 261 260 260 260 259 259 259 258 258 257 257 256 256 256 255 255 254 254 254 253 253 253 253 253 252 252 252
276 275 275 274 274 274 274 274 274 274 274 274 273 273 272 272 272 272 271 271 271 270 270 270 270 270 269 269 269 269 269 269 269 268 268 268 268 268 268 267 267 267 267 266 266 266 266 265 265 265 264 264 264 263 263 263 262 262 261 261 261 260 260 260 259 259 258 258 257 257 257 256 256 255 255 254 254 253 253 253 253 253 252 252 252
277 277 277 276 276 276 276 276 276 276 275 275 274 274 274 273 273 272 272 272 272 272 271 271 271 271 271 270 270 270 270 269 269 269 269 269 269 269 268 268 268 268 267 267 267 267 266 266 266 266 265 265 265 264 264 264 263 263 263 262 262 261 261 260 260 259 259 258 258 257 257 257 256 256 255 255 254 254 253 253 253 253 252 252 252
276 275 275 275 275 275 276 275 275 275 274 274 273 273 273 273 273 272 272 272 272 271 271 271 271 271 271 270 270 270 270 270 270 269 269 269 269 269 269 268 268 268 268 267 267 267 267 267 267 266 266 266 266 265 265 265 265 264 264 263 263 262 262 261 261 261 260 259 259 258 257 257 257 256 256 256 255 255 254 254 253 253 253 252 252
277 277 277 277 277 277 277 277 276 276 276 275 275 275 274 274 274 273 273 272 272 272 271 271 270 270 270 270 270 269 269 269 269 269 269 269 269 269 268 268 268 268 268 268 267 267 267 267 267 267 266 266 266 266 266 265 265 265 265 265 264 264 263 263 262 262 262 261 260 259 258 258 257 257 256 256 256 255 255 254 254 254 253 253 252
282 282 282 282 282 282 282 281 281 281 281 280 280 279 278 278 277 276 276 275 274 274 273 272 271 271 270 270 269 269 269 269 269 269 269 269 268 268 268 268 268 268 268 267 267 267 267 267 267 267 266 266 266 266 266 265 265 265 265 265 265 264 264 264 263 263 263 262 262 261 260 259 258 258 257 257 256 256 255 255 255 254 254 254 253
287 288 288 288 288 288 287 287 286 286 286 285 285 284 283 282 282 281 280 279 278 277 276 275 274 273 272 272 271 270 270 270 269 269 269 269 269 268 268 268 268 268 268 267 267 267 267 267 266 266 266 266 266 266 265 265 265 265 264 264 264 264 264 264 263 263 263 263 263 262 262 261 260 259 259 258 257 256 256 256 256 255 254 254 254
292 292 291 290 289 289 288 288 287 287 286 286 285 285 285 285 284 284 283 282 281 280 279 278 277 275 275 274 273 272 272 271 271 271 270 270 270 269 269 269 269 268 268 268 267 267 267 267 266 266 266 266 266 266 265 265 265 265 264 264 264 264 263 263 263 263 262 262 262 262 262 262 262 261 260 259 259 258 257 257 256 256 256 255 254
295 294 293 292 291 290 289 289 288 287 287 287 286 286 286 285 285 285 284 283 282 281 280 280 279 277 276 275 275 274 273 272 272 272 271 271 271 270 270 270 270 269 269 269 268 268 268 267 267 267 266 266 266 266 266 266 265 265 265 264 264 264 263 263 263 263 262 262 262 262 262 262 262 261 261 261 260 259 258 258 257 257 257 256 255
301 300 300 300 299 298 297 296 295 294 294 293 292 292 291 290 289 288 287 286 284 283 282 281 280 279 278 278 277 276 275 274 273 272 272 272 271 271 271 271 271 270 270 270 270 269 269 269 268 268 268 267 267 267 267 267 266 266 265 265 265 264 264 263 263 263 262 262 262 262 262 261 261 261 261 261 261 260 259 259 258 258 257 257 257
307 307 307 307 307 307 307 306 306 305 305 304 303 302 301 299 298 297 296 294 293 291 289 287 286 284 283 281 280 279 278 277 276 275 274 274 273 273 272 272 272 271 271 271 271 271 270 270 270 270 269 269 268 268 268 267 267 267 266 266 265 265 265 264 264 263 263 262 262 262 262 262 261 261 261 261 261 261 260 260 259 259 258 258 258
311 312 312 313 313 313 314 314 314 313 313 312 312 311 310 309 309 308 306 304 302 299 297 294 292 290 288 286 284 283 281 280 279 278 277 276 276 275 275 274 274 273 273 273 272 272 272 271 271 271 270 270 269 269 268 268 267 267 267 266 266 266 266 265 265 264 264 263 263 262 262 262 262 261 261 261 261 261 261 260 260 259 259 259 259
314 314 315 315 315 316 316 317 316 316 316 316 316 315 315 314 313 313 312 310 307 304 301 299 297 294 292 290 288 287 285 284 282 281 280 279 278 277 277 276 276 275 275 275 274 274 274 273 273 272 272 271 270 270 269 269 268 268 267 267 267 266 266 266 266 266 265 265 264 264 263 263 262 262 261 261 261 261 261 260 260 260 259 259 259
313 314 314 314 315 316 316 317 317 317 317 317 316 316 316 315 314 314 313 311 309 306 304 301 299 297 295 294 292 290 289 288 286 285 284 283 281 280 279 279 278 277 277 276 275 275 275 275 274 274 273 273 272 272 271 271 270 269 269 269 268 268 268 267 267 267 266 266 265 264 264 263 263 262 261 261 260 260 260 260 260 259 259 259 258
312 313 313 314 315 315 316 316 316 316 316 316 316 316 315 315 315 314 314 313 311 308 306 304 301 300 298 296 295 293 292 290 289 288 286 285 284 283 282 281 280 279 279 278 277 276 276 275 275 275 274 274 273 273 273 272 272 272 271 271 271 270 270 269 269 268 267 266 266 265 264 263 262 262 261 260 260 259 259 259 259 259 258 258 258
312 312 312 313 314 314 314 315 315 316 315 315 315 315 315 315 315 315 315 314 313 310 308 306 303 301 300 299 298 296 294 292 291 289 288 287 286 285 284 284 283 282 281 280 279 278 278 277 276 276 276 275 275 275 274 274 274 274 273 273 272 271 270 270 269 268 268 267 266 266 265 264 263 262 261 260 260 259 259 258 258 258 257 257 257
311 311 312 312 313 313 313 314 315 315 315 315 315 315 315 315 315 315 315 315 313 311 309 307 304 302 301 300 299 298 296 295 293 291 290 289 288 287 286 286 285 284 283 282 282 281 280 279 279 278 278 277 277 277 277 277 276 276 275 274 273 272 271 270 269 268 267 267 266 266 265 264 264 263 262 261 260 259 259 258 257 257 257 256 256
311 311 311 312 312 312 313 314 314 314 314 314 314 314 315 315 315 315 315 314 313 311 309 307 305 303 302 301 300 299 298 297 295 293 292 290 289 288 287 287 286 285 284 284 283 282 281 281 280 280 279 279 279 279 279 278 278 277 276 275 274 273 272 270 269 268 267 266 266 265 264 264 263 263 263 262 261 261 260 259 258 257 256 256 255
311 311 311 312 312 312 312 313 313 313 314 314 314 314 314 315 315 315 315 314 313 311 309 307 306 304 303 302 301 300 299 297 296 294 293 291 290 289 288 287 286 286 285 284 284 283 282 282 281 281 280 280 280 280 280 279 279 278 277 276 274 273 272 271 270 269 268 267 266 265 265 264 263 263 262 262 261 261 260 260 259 258 257 256 255
310 311 311 311 311 312 312 312 313 313 313 314 314 314 314 314 315 315 315 314 312 311 309 308 306 305 304 302 301 299 298 297 296 295 293 292 290 289 288 288 287 286 286 285 284 284 283 283 283 282 282 282 282 282 281 281 280 279 278 277 276 274 273 272 271 270 269 269 268 267 266 265 264 263 262 261 261 260 260 259 259 259 258 258 257
310 310 310 310 310 311 312 312 312 313 313 313 313 313 314 314 314 314 314 313 312 311 309 308 307 306 304 303 301 300 298 297 296 295 294 292 291 290 289 288 288 287 287 286 286 286 286 285 285 285 285 285 284 284 284 283 282 281 280 279 278 277 276 274 273 272 271 270 269 268 267 266 265 264 263 262 261 260 259 258 258 257 257 257 257
309 309 309 310 310 311 311 311 312 313 313 313 313 313 314 314 314 314 314 313 311 311 310 309 308 307 305 304 302 300 299 297 296 295 295 294 293 292 291 290 289 289 288 288 288 288 288 288 288 288 288 287 287 287 286 285 284 283 282 281 280 279 278 277 276 274 273 271 270 269 268 267 266 265 264 263 262 261 260 259 258 257 257 256 256
309 309 309 309 310 310 311 311 312 312 313 313 313 314 314 314 314 314 313 312 311 310 310 309 309 308 306 305 303 302 300 299 298 297 296 296 295 294 293 292 291 291 291 290 290 290 290 290 290 290 289 289 288 288 287 286 285 284 283 282 282 281 280 279 277 276 275 274 272 271 269 268 267 266 265 264 263 262 261 261 260 259 258 257 256
308 308 309 309 310 310 311 311 312 313 313 313 313 314 314 314 314 313 313 312 311 310 310 310 309 308 307 306 304 303 301 300 299 298 298 297 297 296 295 294 293 293 292 292 292 292 292 292 292 291 291 290 290 289 288 287 287 286 285 284 283 282 281 280 279 278 276 275 274 273 271 270 269 267 266 264 263 263 262 261 260 259 259 258 257
308 308 309 309 310 310 311 312 312 313 313 313 313 313 313 313 313 313 312 311 311 311 310 310 309 309 308 307 305 304 303 301 300 299 299 299 298 298 297 295 295 294 294 294 294 294 294 294 293 293 293 292 292 291 290 289 289 288 287 286 285 284 283 281 280 279 278 277 276 274 273 272 271 269 268 266 265 263 262 261 260 259 259 258 257
308 309 309 310 310 311 311 312 313 313 313 313 313 313 313 313 313 313 312 311 311 311 311 310 310 310 309 308 307 305 304 303 302 301 300 300 299 299 298 296 296 295 295 295 295 296 296 296 295 295 295 294 293 293 292 291 290 289 288 287 286 284 283 282 281 280 279 278 277 276 275 273 272 271 269 268 266 265 264 263 262 261 260 259 258
309 309 310 310 310 311 312 312 313 313 313 313 313 313 313 313 313 312 312 311 311 311 311 311 311 311 310 309 308 306 305 304 303 302 301 300 300 299 298 297 296 296 296 297 297 297 298 297 297 297 296 296 295 293 292 292 291 289 288 287 286 285 284 283 282 281 280 279 278 277 276 274 273 272 270 269 268 267 265 264 263 262 261 260 259
309 309 310 310 311 311 312 312 313 313 313 313 313 313 313 313 313 312 311 311 311 311 311 311 311 311 310 309 308 307 305 304 303 302 302 301 301 300 299 298 297 297 297 298 298 299 299 298 298 298 297 296 295 294 293 292 291 290 289 287 286 285 284 283 283 282 281 280 279 278 276 275 274 273 271 270 269 268 267 265 264 263 261 261 260
309 309 310 310 311 312 312 312 312 313 313 313 313 313 313 313 312 311 311 311 311 311 311 311 311 311 310 309 308 307 306 305 304 303 303 302 301 300 299 299 298 298 299 299 299 300 300 299 299 299 298 297 295 294 293 292 291 290 289 288 287 286 285 284 283 283 281 280 279 278 277 276 275 274 272 271 270 269 267 266 265 264 262 261 260
309 310 310 311 311 312 312 312 312 313 313 313 313 313 313 312 312 311 311 311 311 311 312 311 311 311 310 309 308 307 306 305 304 304 303 302 302 301 300 299 299 299 299 300 300 300 300 300 300 299 298 297 295 294 294 293 292 291 290 290 289 287 286 285 285 284 283 282 280 279 278 277 276 274 273 272 271 270 269 268 266 265 263 262 260
310 310 310 311 311 311 311 312 312 313 313 313 313 313 313 312 312 312 312 312 312 312 312 312 312 311 311 310 309 308 307 306 305 304 304 303 302 301 300 300 300 300 300 300 301 301 301 300 300 299 298 297 295 295 294 293 292 292 291 291 290 289 288 287 286 285 284 283 281 280 279 278 277 276 274 273 272 271 270 268 267 266 265 263 261
309 310 310 310 311 311 311 312 313 313 313 313 313 313 312 312 312 312 312 312 312 312 312 312 312 312 311 310 309 308 307 307 306 305 304 303 302 302 301 300 300 300 301 301 301 302 301 301 300 299 298 297 296 295 295 294 293 293 293 292 291 290 290 289 288 287 285 284 282 281 279 278 277 276 276 275 273 272 270 269 268 267 265 264 263
309 309 309 310 310 311 312 312 313 313 313 313 313 312 312 312 312 312 312 312 312 313 313 313 313 312 311 311 310 309 308 307 306 305 304 303 303 302 301 301 301 301 302 302 302 303 302 301 300 299 298 297 296 296 295 295 295 294 294 293 292 291 290 290 289 288 287 285 284 282 281 279 277 276 275 275 275 273 272 270 269 267 266 265 264
308 308 309 310 311 311 312 312 313 313 313 313 313 312 312 312 312 312 312 312 313 313 313 313 313 312 311 311 310 309 308 307 306 305 304 304 303 303 303 302 302 303 303 303 303 303 302 301 301 300 299 298 297 297 296 296 296 295 295 294 293 292 291 290 289 289 287 286 285 284 283 281 280 277 276 274 274 273 273 271 270 268 267 266 265
309 309 310 310 311 311 312 313 313 313 313 313 313 313 313 313 312 312 313 313 313 313 313 313 313 312 312 311 310 309 308 307 306 305 305 304 304 304 304 304 304 304 304 304 304 304 303 302 301 300 300 299 298 298 297 297 297 296 296 295 294 292 291 290 290 289 287 286 286 285 284 283 281 280 278 276 274 273 272 271 271 270 268 266 264
309 310 310 311 311 312 312 313 313 313 313 313 313 313 313 313 313 313 313 313 314 314 314 313 313 312 312 311 310 309 308 307 307 306 306 306 305 305 305 305 304 304 304 305 304 304 303 302 302 301 301 300 299 299 299 298 298 297 297 296 295 293 291 290 290 289 288 287 286 285 284 283 282 281 280 279 277 274 272 271 270 270 270 268 266
310 310 310 311 311 312 312 313 313 313 313 313 313 313 313 313 313 313 314 314 314 314 314 313 313 313 312 312 311 310 309 308 308 307 307 307 306 306 306 305 305 305 305 305 305 304 303 303 303 303 302 301 300 300 300 300 299 299 298 297 296 294 292 291 290 289 288 287 286 285 285 284 283 282 282 280 279 277 275 273 271 269 269 269 269
310 310 310 311 312 312 313 313 313 313 313 313 313 313 313 313 313 314 314 314 314 314 314 314 314 313 313 312 311 310 309 309 308 308 308 307 307 306 306 306 305 305 306 306 305 304 304 304 304 303 303 302 301 301 301 301 301 300 299 298 296 294 293 291 290 289 289 288 287 286 285 284 284 283 282 281 280 278 277 275 273 272 270 269 269
310 310 311 311 312 312 313 313 313 313 313 313 313 313 313 314 314 314 314 315 315 314 314 314 314 314 313 312 311 310 309 309 309 309 308 308 307 307 306 306 306 306 307 307 306 306 305 305 305 304 304 303 303 302 302 302 302 301 300 298 297 295 293 292 291 290 289 288 287 286 285 284 284 284 283 282 281 279 278 277 275 274 273 271 269
310 310 311 311 312 312 312 312 312 312 313 313 313 314 314 314 314 314 315 315 315 315 314 314 314 314 313 312 311 310 310 310 310 309 309 308 308 307 307 307 307 308 308 308 307 307 306 306 306 305 305 304 304 303 303 303 303 302 300 299 297 295 293 292 291 290 289 289 288 286 285 284 284 284 284 283 282 280 279 278 277 276 274 273 272
310 310 311 311 312 312 312 312 312 312 313 313 314 314 314 314 315 315 315 315 315 315 315 314 314 313 312 311 311 310 310 310 310 310 309 309 308 308 307 308 308 309 309 308 308 308 308 307 307 307 306 305 305 304 305 305 304 303 301 299 297 295 293 292 291 290 290 289 288 287 286 286 285 284 284 284 283 282 281 280 279 278 276 275 273
309 310 311 311 311 312 312 312 312 312 313 313 314 314 314 314 315 315 315 315 315 315 314 314 314 313 312 311 311 311 311 311 310 310 309 309 308 308 308 309 309 309 309 309 309 309 309 308 308 308 307 307 306 306 305 305 305 303 301 300 297 295 293 292 291 290 290 289 288 287 287 287 286 285 284 284 284 283 282 281 280 280 279 277 275
309 310 311 311 311 311 312 312 312 313 313 314 314 314 314 315 315 315 315 315 315 314 314 314 313 312 312 311 311 311 312 311 311 310 310 309 309 308 309 309 309 310 310 309 309 310 309 309 309 309 309 308 307 306 306 306 305 304 302 300 297 295 293 292 291 291 291 290 289 288 288 288 287 286 285 285 284 284 283 282 281 280 280 278 277
309 310 310 311 311 311 312 312 312 313 313 314 314 314 314 315 315 315 315 315 314 314 314 314 313 312 312 312 312 312 312 311 311 310 310 309 309 309 309 310 310 310 310 310 310 310 310 310 310 310 310 309 308 307 306 306 306 304 302 300 298 295 294 293 292 291 291 290 289 290 290 290 289 288 287 285 284 284 283 283 282 281 280 279 278
310 310 310 311 311 311 312 312 313 313 313 314 314 314 314 314 315 315 315 314 314 314 314 313 313 312 312 312 312 312 312 311 311 310 309 309 309 309 309 310 311 311 310 310 310 310 311 311 311 311 311 310 308 307 306 307 306 305 303 300 297 296 295 294 292 292 291 290 290 291 291 291 291 291 290 287 285 284 283 282 282 281 280 280 279
310 310 310 310 311 311 312 312 313 313 314 314 314 314 314 314 315 315 315 314 313 313 313 313 313 312 312 312 312 312 312 311 311 310 309 309 309 309 310 311 311 311 311 310 311 311 311 312 312 311 311 310 308 306 306 306 306 306 304 300 297 296 296 295 293 292 291 290 290 291 291 292 292 292 291 290 289 287 285 283 281 280 280 279 279
310 310 310 310 311 311 312 312 313 313 313 314 314 314 314 315 315 315 314 313 313 313 313 313 313 313 313 313 312 312 312 311 310 310 309 309 309 310 310 311 311 311 311 311 311 311 312 312 312 312 312 310 308 306 305 306 307 307 305 301 297 297 297 296 295 293 292 291 291 291 291 291 291 292 291 291 290 290 288 286 284 282 280 278 279
309 310 310 310 311 311 312 312 313 313 313 314 314 314 314 314 314 314 313 313 313 313 313 313 313 313 313 313 312 312 312 311 310 310 309 310 310 310 311 311 311 311 311 311 311 312 313 313 312 312 312 310 308 306 305 305 307 308 306 301 298 297 297 296 295 294 292 291 291 292 291 292 292 291 290 290 290 289 289 288 286 284 282 280 280
309 309 310 310 311 311 312 312 313 313 313 314 314 314 315 314 314 313 313 312 312 313 313 313 313 313 313 312 312 312 311 311 311 310 310 310 311 311 312 312 312 312 311 312 312 313 313 313 313 312 312 310 307 305 305 305 307 308 307 302 299 298 298 297 296 295 293 293 295 295 296 295 295 293 292 291 291 290 289 288 286 285 283 282 282
309 309 309 310 311 311 312 312 312 313 313 314 314 315 314 313 313 313 313 312 312 313 313 313 314 313 313 312 312 312 311 311 311 311 311 311 312 312 312 312 313 312 312 313 314 315 315 314 314 313 312 310 308 306 306 306 307 308 307 303 299 299 299 298 297 295 294 295 296 296 295 294 293 293 293 293 293 292 291 289 288 286 285 284 283
308 309 309 310 311 312 312 312 312 313 313 314 314 315 314 312 312 312 312 312 313 313 313 313 313 313 313 312 312 311 311 311 311 311 311 312 312 313 314 314 313 313 313 314 315 315 315 314 314 314 312 310 309 307 307 307 308 309 307 304 300 299 299 299 298 296 295 295 295 294 293 293 293 293 292 292 291 291 289 288 287 287 287 287 286